Regional Weather Roundup
Issued by NWS

Home | Current Version | Previous Version | Graphics & Text | Print | Product List | Glossary On
Versions: 1 2 3 4 5 6 7 8 9 10 11 12 13 14 15 16 17 18 19 20 21 22 23 24 25 26 27 28 29 30 31 32 33 34 35 36 37 38 39 40 41 42 43 44 45 46 47 48 49 50
000
ASUS43 KLMK 241010
RWRKY
KENTUCKY REGIONAL WEATHER ROUNDUP
NATIONAL WEATHER SERVICE LOUISVILLE KY
600 AM EDT SUN JUL 24 2016

NOTE "FAIR" INDICATES FEW OR NO CLOUDS BELOW 12,000 FEET
WITH NO SIGNIFICANT WEATHER AND/OR OBSTRUCTIONS TO VISIBILITY.

KYZ001>023-026-027-061>063-070>075-241100-
WESTERN AND SOUTH CENTRAL KENTUCKY

CITY           SKY/WX    TMP DP  RH WIND       PRES   REMARKS
PADUCAH        CLEAR     77  73  87 S3        29.94S
HENDERSON      CLEAR     75  72  88 S5        29.93F
OWENSBORO      CLEAR     78  78 100 S6        29.96F FOG
HOPKINSVILLE   CLEAR     75  74  96 E2        29.97S
BOWLING GREEN  PTCLDY    75  73  93 SE6       29.99S
GLASGOW        CLEAR     74  74  98 CALM      30.01R
$$

KYZ024-025-028>034-038-045-046-053-241100-
NORTH CENTRAL KENTUCKY

CITY           SKY/WX    TMP DP  RH WIND       PRES   REMARKS
LOUISVILLE/SDF CLOUDY    80  75  84 CALM      29.97R
LOUISVILLE/LOU PTCLDY    79  74  84 S5        29.98R
FORT KNOX      CLOUDY    73  73 100 SW2       29.98R
$$

KYZ035>037-039>044-047>052-055>060-089>105-241100-
NORTHEAST KENTUCKY

CITY           SKY/WX    TMP DP  RH WIND       PRES   REMARKS
LEXINGTON      CLOUDY    75  72  90 S5        30.01F
COVINGTON      CLOUDY    75  72  90 NW5       30.01R
FRANKFORT      CLEAR     75  71  87 CALM      29.98F
$$

KYZ054-064>069-076>088-106>120-241100-
SOUTHEAST KENTUCKY

CITY           SKY/WX    TMP DP  RH WIND       PRES   REMARKS
JACKSON        CLEAR     73  71  93 CALM      30.05S
LONDON         CLEAR     72  69  90 S3        30.05R
SOMERSET       CLOUDY    70  70 100 CALM      30.05R FOG
MIDDLESBORO    CLOUDY    71  71 100 CALM      30.07R FOG
MONTICELLO     SUNNY    N/A N/A N/A W3        30.05R
$$





USA.gov is the U.S. government's official web portal to all federal, state and local government web resources and services.